Temperature
17 17 17 17 17 17 17 16 16 16 16 17 17 17 16 16 16 16 16 16 15 15 15 15 15 14 14 14 14 14 13 13 13 13 12 12 12 11
17 17 17 17 17 16 16 16 16 16 16 16 16 16 16 16 16 16 15 15 15 15 15 15 14 14 14 14 14 13 13 13 12 12 12 12 11 11
16 16 17 16 16 16 16 16 16 16 16 16 16 16 15 15 15 15 15 15 15 15 14 14 14 14 14 13 13 13 13 12 12 12 11 11 11 11
16 16 16 16 16 16 16 16 16 16 15 15 15 15 15 15 15 15 15 15 14 14 14 14 14 13 13 13 13 12 12 12 12 11 11 11 10 10
16 16 16 16 16 16 16 16 16 16 15 15 15 15 15 15 14 14 14 14 14 14 14 13 13 13 13 12 12 12 12 11 11 11 10 10 10 10
16 16 16 16 16 16 16 16 15 15 15 15 15 15 15 14 14 14 14 14 13 13 13 13 13 12 12 12 12 11 11 11 10 10 10 10 9 9
16 16 16 15 15 15 15 15 15 15 15 15 15 14 14 14 14 14 13 13 13 12 12 12 12 12 11 11 11 11 10 10 10 10 10 9 9 9
16 16 15 15 15 15 15 15 15 15 15 14 14 14 14 14 14 13 13 13 12 12 12 11 11 11 11 11 10 10 10 10 9 9 9 9 8 8
15 15 15 15 15 15 15 15 15 14 14 14 14 14 14 14 13 13 13 13 12 12 11 11 11 10 10 10 10 9 9 9 9 9 8 8 8 7
15 15 15 15 15 14 14 14 14 14 14 14 14 14 13 13 13 13 12 12 11 11 11 11 10 10 10 10 9 9 9 9 8 8 8 8 7 7
14 14 14 14 14 14 14 14 14 14 13 13 13 13 13 13 12 12 12 11 11 11 10 10 10 10 9 9 9 9 8 8 8 8 8 7 7 7
14 14 14 13 13 13 13 13 13 13 13 13 13 13 12 12 12 12 11 11 11 10 10 10 10 9 9 9 9 8 8 8 7 7 7 7 7 6
13 13 13 13 13 13 13 13 12 12 12 12 12 12 12 12 11 11 11 11 10 10 10 10 9 9 9 8 8 8 8 7 7 7 7 6 6 6
13 13 13 13 12 12 12 12 12 12 12 12 11 11 11 11 11 10 10 10 10 10 10 10 9 9 9 8 8 8 7 7 7 7 6 6 6 6
13 12 12 12 12 12 12 11 11 11 11 11 11 11 10 10 10 10 10 9 9 9 9 9 9 9 9 8 8 8 7 7 7 6 6 6 6 6
12 12 12 11 11 11 11 11 11 11 10 10 10 10 10 10 9 9 9 9 9 9 9 9 8 8 8 8 8 8 7 7 7 6 6 6 6 6
11 11 11 11 11 11 10 10 10 10 10 9 9 9 9 9 9 9 9 9 8 8 8 8 8 8 8 8 7 7 7 7 7 6 6 6 6 6
11 11 11 10 10 10 10 10 9 9 9 9 9 9 9 8 8 8 8 8 8 8 8 8 7 7 7 7 7 7 7 7 7 6 6 6 6 6
10 10 10 10 10 9 9 9 9 9 8 8 8 8 8 8 8 8 8 8 8 8 8 7 7 7 7 7 7 7 7 7 6 6 6 6 6 6
10 10 10 9 9 9 9 8 8 8 8 8 8 8 8 7 7 7 7 7 7 7 7 7 7 7 7 7 7 7 6 6 6 6 6 6 6 6
9 9 9 9 9 8 8 8 8 8 8 7 7 7 7 7 7 7 7 7 7 7 7 7 7 7 7 7 6 6 6 6 6 6 6 6 6 6
9 9 8 8 8 8 8 8 8 7 7 7 7 7 7 7 7 7 7 7 7 7 7 7 7 6 6 6 6 6 6 6 6 6 6 6 6 6
8 8 8 8 8 8 7 7 7 7 7 7 7 7 7 7 7 7 7 7 7 7 7 6 6 6 6 6 6 6 6 6 6 6 6 6 6 6
Wind_Speed
6 6 5 4 5 5 4 4 4 4 4 3 2 2 4 4 5 6 7 8 10 11 11 10 10 10 9 9 8 8 7 7 7 7 7 7 6 6
4 5 5 4 4 4 5 5 5 5 4 2 2 2 3 3 5 5 6 8 9 9 10 10 10 10 10 10 10 9 9 9 9 8 7 7 7 6
4 5 5 4 4 4 4 4 4 4 5 3 2 2 3 3 3 4 4 5 6 8 9 10 10 11 11 10 10 10 10 10 9 8 8 7 7 7
5 4 5 4 4 4 4 5 5 5 5 5 3 3 3 3 3 3 3 4 5 6 8 9 9 10 10 10 10 10 10 10 10 9 9 9 8 8
5 5 5 4 4 4 4 5 4 5 4 4 4 2 2 2 2 2 3 3 4 5 7 8 9 10 10 10 10 11 11 10 10 10 10 9 9 8
4 4 5 5 6 5 5 5 4 4 4 4 4 3 2 2 3 3 2 2 2 3 5 6 8 9 10 11 11 11 11 10 10 10 10 10 9 8
3 3 4 4 5 4 4 4 4 4 4 4 4 3 4 4 5 4 4 3 2 3 3 4 5 6 7 8 9 10 11 11 11 11 11 10 10 10
3 2 2 2 3 3 4 4 5 5 5 5 4 5 6 5 4 5 4 4 3 4 4 3 4 4 5 7 9 10 11 11 11 11 12 11 11 10
2 1 1 1 1 1 1 1 1 2 4 5 6 6 5 6 7 7 6 5 4 4 5 4 3 4 5 7 10 11 11 12 12 12 11 11 11 10
1 1 1 0 1 0 0 1 1 2 2 3 4 4 4 5 7 6 6 4 2 2 3 3 3 3 3 6 10 12 12 12 12 12 12 11 10 9
1 0 1 0 1 1 1 0 1 2 2 2 0 1 4 6 7 5 5 5 3 3 3 3 3 3 2 3 7 11 12 12 12 12 11 11 10 9
0 0 1 1 1 1 1 1 1 1 0 1 2 2 3 5 7 6 6 6 3 3 4 4 4 4 3 2 4 7 8 10 11 11 11 11 11 8
1 1 0 1 1 0 1 2 3 2 1 1 1 1 2 2 3 4 4 5 4 3 5 5 4 4 3 3 2 4 6 6 8 8 10 11 11 10
2 2 1 2 1 1 1 1 1 1 1 1 1 1 1 1 1 2 3 3 2 3 7 7 4 5 4 3 3 3 4 6 7 6 8 9 10 11
1 2 2 2 1 0 0 1 1 1 1 1 1 1 1 1 1 1 2 3 3 4 6 6 4 5 4 4 4 4 3 4 6 6 6 7 7 7
0 1 1 1 1 1 1 1 0 1 1 1 1 0 0 1 1 1 1 2 2 2 2 4 5 5 4 3 4 4 4 4 5 6 5 5 7 9
1 1 1 1 1 1 1 1 0 1 0 0 1 0 0 1 0 1 1 2 2 2 2 2 3 3 3 4 4 4 4 4 4 5 5 5 6 9
2 1 1 1 1 1 1 1 1 0 0 1 1 1 1 1 1 1 1 2 2 2 3 3 3 3 2 1 4 5 5 4 4 5 5 5 5 6
2 0 0 1 1 1 1 1 1 1 1 1 1 1 2 2 2 2 2 2 2 2 2 3 4 4 4 3 3 6 5 4 4 4 4 5 5 5
1 1 1 1 1 1 1 1 1 1 1 1 2 2 2 2 2 2 3 3 3 2 2 3 4 4 5 3 2 2 7 6 5 4 4 3 3 4
1 1 1 1 1 1 1 2 2 2 2 2 2 2 2 2 3 3 3 4 4 3 4 4 3 4 2 2 2 2 2 7 8 5 5 3 3 3
1 1 1 1 1 1 2 2 2 2 2 2 2 2 2 3 3 3 3 3 4 4 4 2 3 4 3 4 4 3 2 2 5 8 9 7 4 4
1 1 1 1 1 1 1 1 2 2 2 2 2 2 2 3 3 3 3 3 3 4 3 3 3 2 2 3 3 3 3 3 2 3 4 8 12 13
Wind_Direction
223 219 220 224 217 217 210 200 204 241 256 226 216 208 201 203 213 203 200 200 200 198 195 191 190 190 191 189 183 178 175 173 167 161 162 163 162 160
220 218 225 228 221 218 217 217 213 220 245 234 225 221 196 196 198 198 200 196 197 192 188 186 185 184 182 179 174 172 170 165 163 165 169 169 167 163
225 221 229 226 224 220 212 212 214 211 237 257 233 216 203 196 181 188 194 190 186 184 185 184 180 174 171 172 172 171 171 170 170 169 167 165 163 160
233 229 237 232 228 227 219 220 219 212 219 240 242 223 216 194 180 178 174 172 168 171 174 173 171 169 169 170 171 170 169 168 167 168 167 165 164 162
224 227 236 230 239 235 230 229 226 222 216 218 234 219 209 182 170 170 155 148 153 156 160 167 170 170 170 168 167 166 164 164 166 167 165 163 163 164
225 228 234 230 235 237 235 230 224 220 214 213 220 207 200 186 174 182 179 175 173 159 153 161 167 167 164 161 163 163 162 164 165 162 160 159 160 160
245 244 245 243 243 239 240 230 215 216 212 216 217 206 202 191 198 188 194 177 182 171 157 164 164 165 169 170 170 169 167 166 164 161 156 155 154 150
248 266 270 259 261 254 250 237 219 214 215 215 220 216 215 205 193 187 185 183 206 187 181 193 176 180 182 181 179 176 172 169 165 161 157 155 153 150
244 266 292 314 14 353 342 339 270 243 223 220 223 223 212 200 188 193 196 197 205 175 171 192 182 191 193 186 178 177 176 173 168 162 159 158 156 155
261 227 220 282 29 53 43 22 359 340 293 243 234 230 213 190 191 193 189 172 120 141 164 183 182 193 184 185 183 180 178 175 171 167 166 166 168 169
348 52 138 141 16 87 119 117 347 347 31 50 90 172 172 169 162 157 160 168 186 189 184 177 168 169 172 186 185 182 181 180 178 177 177 179 182 183
302 25 103 98 45 82 162 202 252 286 355 50 57 75 131 153 162 175 178 181 180 189 183 173 162 158 167 182 180 178 180 183 185 187 187 187 187 187
230 250 210 113 89 74 215 235 247 229 174 128 100 93 107 135 156 167 178 182 186 198 175 170 168 169 166 160 173 183 184 185 188 193 196 195 194 193
228 232 215 173 166 187 215 223 184 149 145 133 128 131 143 163 168 163 163 165 176 177 170 170 167 172 166 166 172 176 186 190 190 194 197 199 203 208
236 212 200 171 149 150 125 125 131 139 159 179 194 215 209 181 144 125 118 116 97 111 151 170 164 165 173 178 169 169 176 192 196 199 199 202 204 203
349 93 99 105 96 76 46 73 114 167 185 210 229 245 155 146 152 153 157 150 132 111 114 151 164 162 170 169 171 176 176 182 190 200 203 209 213 214
146 104 78 79 65 29 20 38 76 111 141 191 174 173 166 156 162 148 153 151 155 159 154 119 120 132 145 159 173 185 181 189 191 184 189 208 219 219
133 155 195 209 228 257 275 306 322 319 250 199 190 198 209 205 191 167 163 173 177 181 177 163 145 136 136 186 201 194 193 192 187 181 188 206 224 223
118 137 242 239 248 256 268 266 273 282 268 226 220 223 222 218 206 197 189 190 196 194 188 174 172 175 188 208 200 200 194 185 176 182 194 204 222 226
41 307 293 295 285 270 267 267 265 260 245 236 234 232 223 219 219 212 204 205 206 201 192 186 190 194 205 207 192 192 196 190 187 192 199 205 227 243
307 294 293 290 286 274 270 269 264 259 257 246 238 236 231 224 226 223 211 202 207 206 209 213 213 191 167 145 165 187 193 201 199 195 192 200 213 219
282 283 292 296 291 279 273 268 264 262 259 255 246 235 229 228 229 224 213 204 209 209 211 198 151 155 173 191 203 203 197 190 207 214 216 209 205 218
269 271 278 281 280 280 273 266 265 268 263 261 250 241 230 226 225 217 212 211 210 202 195 182 165 166 180 191 199 205 204 203 198 205 226 232 233 243
Height
1559 1560 1560 1561 1561 1562 1562 1562 1563 1561 1560 1561 1562 1562 1563 1564 1564 1565 1565 1566 1566 1567 1568 1568 1569 1569 1570 1570 1570 1571 1571 1572 1572 1572 1572 1573 1573 1574
1555 1555 1556 1556 1557 1557 1558 1558 1558 1558 1557 1556 1557 1558 1559 1559 1560 1560 1561 1561 1562 1563 1563 1564 1565 1565 1566 1566 1567 1567 1568 1568 1568 1569 1569 1570 1570 1570
1551 1551 1552 1552 1553 1553 1553 1553 1553 1554 1553 1552 1553 1554 1554 1555 1556 1556 1557 1557 1558 1559 1559 1560 1561 1561 1562 1562 1563 1563 1564 1564 1565 1565 1565 1566 1567 1567
1547 1547 1548 1548 1548 1549 1549 1549 1549 1549 1549 1548 1548 1549 1549 1550 1551 1552 1552 1553 1553 1554 1555 1556 1556 1557 1558 1558 1559 1559 1560 1560 1561 1562 1562 1563 1564 1564
1543 1543 1543 1544 1544 1544 1544 1544 1544 1544 1544 1544 1543 1544 1545 1545 1546 1547 1548 1548 1549 1550 1550 1551 1552 1553 1553 1554 1555 1555 1556 1557 1558 1558 1559 1560 1561 1562
1539 1539 1539 1539 1539 1539 1539 1539 1539 1539 1539 1539 1539 1539 1539 1540 1541 1542 1542 1543 1544 1545 1546 1547 1548 1549 1550 1550 1551 1552 1552 1554 1555 1556 1556 1557 1558 1559
1535 1535 1535 1535 1535 1535 1535 1535 1535 1534 1534 1534 1534 1534 1534 1535 1536 1537 1538 1538 1539 1541 1542 1543 1544 1544 1545 1546 1547 1548 1549 1550 1552 1553 1554 1554 1555 1556
1531 1531 1531 1531 1531 1531 1530 1530 1530 1530 1529 1529 1529 1529 1529 1530 1531 1532 1533 1534 1534 1536 1537 1538 1540 1540 1541 1542 1544 1545 1546 1548 1549 1550 1551 1551 1552 1553
1528 1528 1527 1527 1526 1526 1526 1525 1525 1525 1525 1525 1524 1524 1525 1525 1526 1527 1528 1529 1530 1531 1533 1534 1535 1536 1537 1538 1540 1541 1543 1544 1546 1547 1548 1549 1550 1551
1525 1525 1524 1523 1523 1523 1522 1522 1521 1521 1521 1520 1520 1520 1520 1521 1521 1522 1523 1524 1526 1527 1529 1529 1531 1532 1534 1535 1536 1538 1540 1541 1543 1544 1545 1546 1547 1549
1522 1521 1521 1521 1520 1520 1519 1519 1518 1518 1517 1517 1517 1516 1516 1516 1517 1518 1518 1520 1520 1522 1524 1525 1526 1528 1530 1531 1532 1534 1536 1538 1539 1541 1542 1543 1545 1546
1519 1519 1518 1518 1517 1517 1516 1516 1515 1514 1514 1513 1513 1513 1513 1513 1513 1514 1514 1516 1516 1518 1519 1521 1522 1524 1526 1527 1528 1530 1532 1534 1536 1538 1539 1541 1542 1543
1516 1515 1515 1515 1514 1514 1513 1513 1512 1511 1511 1510 1510 1510 1510 1510 1510 1511 1512 1513 1514 1514 1516 1517 1518 1520 1522 1523 1525 1526 1528 1530 1532 1534 1536 1538 1539 1540
1512 1512 1511 1511 1511 1510 1510 1509 1509 1509 1508 1507 1507 1507 1507 1507 1507 1508 1509 1510 1510 1511 1512 1514 1515 1516 1518 1519 1521 1523 1525 1527 1529 1531 1533 1535 1536 1537
1509 1509 1508 1508 1507 1507 1507 1506 1506 1506 1505 1505 1504 1504 1504 1504 1505 1505 1506 1507 1507 1508 1509 1510 1511 1513 1514 1516 1517 1519 1521 1523 1526 1527 1529 1531 1533 1534
1506 1505 1505 1505 1504 1504 1504 1503 1503 1503 1503 1502 1502 1502 1502 1502 1503 1503 1503 1504 1505 1505 1506 1508 1509 1510 1511 1513 1515 1516 1518 1520 1522 1524 1526 1528 1530 1531
1502 1502 1502 1502 1501 1501 1501 1500 1500 1500 1500 1500 1500 1500 1500 1500 1501 1501 1501 1502 1502 1503 1504 1505 1507 1508 1509 1511 1512 1514 1515 1517 1519 1521 1523 1524 1526 1528
1500 1499 1499 1499 1499 1498 1498 1498 1497 1497 1497 1497 1497 1498 1498 1498 1498 1499 1499 1500 1500 1501 1502 1503 1505 1506 1508 1508 1511 1511 1513 1515 1517 1518 1520 1521 1523 1525
1497 1497 1496 1496 1496 1496 1495 1495 1495 1495 1495 1495 1495 1495 1495 1496 1496 1496 1497 1497 1498 1499 1500 1501 1503 1504 1505 1506 1507 1509 1511 1512 1514 1515 1517 1518 1520 1521
1494 1494 1494 1494 1493 1493 1493 1493 1493 1493 1493 1493 1493 1493 1493 1493 1493 1494 1495 1495 1496 1497 1498 1499 1500 1501 1502 1504 1505 1506 1508 1509 1511 1512 1514 1515 1516 1518
1492 1492 1492 1491 1491 1491 1491 1491 1490 1490 1490 1490 1490 1491 1491 1491 1491 1492 1493 1493 1494 1495 1496 1497 1498 1499 1500 1502 1503 1503 1505 1507 1508 1509 1511 1512 1513 1514
1490 1490 1490 1490 1489 1489 1488 1488 1488 1488 1488 1488 1488 1488 1488 1489 1489 1490 1490 1491 1491 1492 1493 1495 1496 1497 1498 1499 1499 1501 1503 1504 1505 1507 1508 1509 1509 1510
1489 1488 1488 1487 1487 1487 1486 1486 1486 1485 1485 1485 1485 1485 1486 1486 1486 1487 1488 1488 1489 1490 1491 1492 1493 1494 1495 1496 1497 1498 1500 1501 1502 1503 1505 1505 1507 1508